Theta_e
337 338 340 342 344 345 346 346 346 348 348 345 343 342 342 341 341 342 342 340 339 331 319 315 317 318 318 321 326 332 332 330 328 325 325 328 329 329 329 328 329 332
336 337 341 342 343 344 346 346 344 345 346 344 342 341 341 342 341 343 342 339 338 332 320 315 316 316 317 319 323 327 327 327 326 323 322 327 330 330 329 328 327 328
337 337 340 343 343 343 345 346 345 344 344 343 342 342 342 343 342 342 341 339 337 332 321 315 316 317 317 317 318 320 321 322 323 321 321 326 329 329 329 328 326 325
338 337 340 342 342 342 344 345 346 344 344 344 342 342 343 343 343 342 341 340 337 331 322 316 316 316 317 317 317 317 318 319 320 321 322 325 327 327 328 327 325 326
338 339 340 340 341 342 343 345 345 344 344 344 343 342 343 344 344 343 342 341 339 334 326 318 315 316 316 317 317 317 318 318 319 321 323 325 326 326 325 324 323 327
338 339 340 340 340 341 342 344 344 343 343 343 343 342 343 344 344 344 343 342 341 338 330 319 315 317 316 317 318 317 317 317 318 321 322 325 328 327 323 322 322 324
338 339 340 340 340 340 342 343 343 343 342 342 342 342 343 344 344 344 342 342 341 340 334 324 317 316 316 317 318 317 317 317 318 320 321 324 328 326 322 321 321 322
339 339 341 341 342 342 342 342 343 343 342 342 342 342 343 344 344 344 343 341 341 340 338 330 320 316 316 317 317 317 318 318 318 319 320 322 324 323 320 320 322 323
341 340 341 342 343 343 343 342 342 342 342 342 342 342 344 344 345 344 342 341 340 339 339 335 324 317 316 317 316 317 318 318 318 318 318 319 322 321 319 320 322 323
345 342 342 342 343 343 343 342 341 342 342 342 342 342 344 344 345 345 343 341 341 339 339 338 329 319 316 317 317 317 319 319 318 318 318 318 320 321 319 319 320 322
347 345 344 343 343 343 343 343 342 342 342 343 343 342 343 344 345 345 344 342 341 340 340 340 333 323 317 317 317 318 320 319 318 318 319 318 319 320 321 320 319 321
349 348 346 345 343 343 343 343 344 343 344 344 344 344 343 343 343 343 343 341 341 341 341 341 337 328 319 317 317 318 320 320 319 319 319 319 319 320 320 320 319 321
350 347 347 346 346 344 343 344 345 345 346 345 345 345 345 344 343 343 343 342 342 342 342 342 340 332 323 320 318 318 320 321 319 318 319 321 321 320 320 319 319 320
349 347 347 347 347 345 345 346 347 347 347 347 346 347 347 346 346 344 344 345 345 344 344 344 342 336 328 322 318 318 320 321 320 319 319 320 321 322 321 320 320 321
350 348 348 347 348 348 347 347 348 349 350 349 349 348 348 348 348 348 348 347 347 347 347 346 344 339 332 325 320 318 320 322 322 320 318 319 321 323 322 322 322 322
354 350 349 348 348 348 347 347 348 350 351 352 351 350 350 350 350 350 351 350 349 349 348 348 346 342 336 330 323 319 319 322 322 320 319 319 321 322 322 322 321 322
358 353 351 349 347 347 347 348 350 352 354 354 354 353 353 353 352 352 351 352 352 351 350 350 348 344 340 334 327 320 318 319 320 319 318 319 321 322 321 319 321 326
360 357 354 350 349 349 348 350 352 354 356 356 356 355 355 356 355 354 353 353 353 353 353 352 350 346 343 338 331 322 317 318 319 318 318 319 321 322 321 323 330 335
360 360 357 354 352 351 352 353 354 356 358 357 357 357 357 358 358 357 356 355 355 355 354 352 351 348 344 341 334 324 318 316 318 317 317 319 321 323 326 330 333 334
360 361 360 357 355 354 355 356 356 358 358 358 358 358 358 359 359 359 358 357 356 356 354 353 351 349 346 342 336 327 318 316 320 320 319 320 322 325 329 330 329 326
360 361 361 360 359 357 357 357 358 359 359 359 359 359 359 360 360 360 359 358 357 356 355 354 352 350 347 343 338 331 321 318 321 321 321 322 323 326 330 331 328 324
361 362 362 362 361 359 359 359 360 360 360 360 360 359 360 360 360 360 359 358 358 356 355 354 352 350 347 342 339 333 324 320 318 318 322 326 327 330 333 333 328 323
361 362 363 363 362 361 361 361 361 362 361 361 360 360 360 360 359 360 359 359 358 356 355 353 350 348 346 342 339 335 330 328 323 320 326 332 334 335 332 330 328 325
362 363 363 363 363 363 363 363 362 362 361 360 360 359 359 359 358 358 358 358 358 356 355 352 349 348 345 343 341 338 336 334 327 325 331 336 337 336 330 326 328 327
363 364 364 364 364 364 364 363 362 361 360 359 358 358 358 358 357 357 358 358 358 356 354 351 348 347 344 343 342 339 339 335 326 324 332 336 334 333 330 326 325 323
365 365 365 365 365 365 364 362 361 361 360 359 357 357 358 358 358 358 358 358 357 355 353 350 349 346 344 343 342 341 341 335 324 320 326 329 328 328 328 326 324 321
Wind_Speed
35 34 34 34 34 32 31 29 29 30 30 29 27 25 24 23 22 20 19 17 15 14 14 12 12 12 12 13 14 14 12 11 10 12 14 13 13 12 11 12 12 11
36 36 35 35 35 34 33 31 30 29 30 28 26 24 23 23 22 21 20 18 17 17 15 13 12 13 13 15 15 15 14 13 12 13 14 15 14 13 12 12 12 13
37 37 37 37 36 35 35 33 31 31 30 28 26 24 24 23 23 22 21 19 18 18 16 14 14 13 13 15 16 16 15 15 15 15 15 16 15 14 13 12 12 13
39 38 39 38 37 36 35 35 34 32 31 29 27 26 25 24 24 24 23 20 19 18 17 15 15 15 14 14 15 16 17 16 16 16 16 16 16 16 14 13 12 12
39 39 40 39 38 36 36 36 35 34 33 31 28 27 26 26 26 26 24 22 20 19 18 18 17 17 16 15 15 15 16 16 17 18 18 17 16 16 15 15 14 13
40 40 40 39 38 37 37 37 36 35 34 32 30 29 28 28 28 28 26 24 22 19 18 19 19 19 19 18 16 15 15 16 17 19 19 18 17 16 16 16 15 15
41 40 40 39 38 38 38 37 37 36 35 33 31 30 30 30 30 30 28 25 23 21 20 20 20 20 20 20 19 17 16 16 18 19 20 19 18 17 16 16 16 15
43 41 40 40 38 38 38 38 38 37 36 34 33 33 32 32 32 31 29 27 25 24 23 23 22 21 21 22 21 19 18 18 19 19 19 20 20 20 18 17 17 16
44 43 42 41 40 39 39 38 38 38 37 36 35 34 34 34 34 33 31 29 28 27 26 25 24 23 22 23 23 21 19 18 19 20 19 20 21 21 20 19 18 16
46 45 44 43 42 41 40 39 38 38 38 38 37 36 35 35 35 35 33 32 31 31 29 28 26 25 25 25 23 21 19 18 19 20 20 20 21 21 21 21 19 17
48 47 46 45 44 43 41 40 39 38 38 38 38 37 37 37 37 37 36 35 34 33 32 30 28 27 27 25 23 20 18 18 20 22 22 21 20 20 21 21 19 18
50 49 48 47 46 44 43 42 40 40 40 40 40 39 39 38 39 39 38 37 36 35 34 32 30 29 28 24 22 20 16 18 21 23 24 24 22 21 22 21 20 19
51 51 49 48 47 45 44 43 43 42 42 41 41 41 41 41 40 40 40 38 37 36 35 34 32 31 29 24 23 20 16 19 23 24 25 27 25 24 23 22 21 20
52 51 50 49 47 46 45 44 44 44 44 43 43 42 42 42 42 41 40 39 38 37 37 35 33 33 32 27 24 23 20 20 23 24 26 28 29 27 25 24 22 20
51 51 51 49 48 47 46 46 45 45 45 44 44 43 43 43 42 42 41 40 40 39 38 38 36 36 36 32 27 26 24 22 23 26 28 28 30 30 27 24 23 21
50 51 51 50 49 48 47 47 46 46 46 45 45 44 43 43 43 43 42 42 42 41 40 39 39 38 38 36 31 29 27 24 24 28 30 29 30 29 27 25 23 21
50 51 51 51 50 49 48 47 47 46 45 45 44 43 42 42 43 43 43 43 42 41 40 40 40 40 40 39 34 30 28 25 24 28 30 29 30 29 27 25 23 20
50 50 51 51 51 50 49 47 46 45 44 44 43 43 41 41 42 42 43 42 42 41 40 39 40 40 41 40 36 32 28 25 25 28 30 29 30 30 28 25 22 19
50 50 49 50 50 50 48 47 46 45 44 44 43 42 41 41 41 41 41 41 41 41 40 38 37 39 41 41 37 34 30 26 27 29 29 29 29 29 27 25 23 21
50 49 48 48 48 48 48 47 46 45 44 43 42 41 41 41 41 41 40 40 40 40 39 36 35 38 41 40 39 36 30 26 27 29 29 29 29 29 28 26 24 23
51 49 47 46 46 46 46 46 45 44 43 43 42 42 41 40 40 40 40 40 40 40 38 35 34 36 39 40 39 35 27 23 26 28 30 32 31 30 29 27 24 22
51 49 47 45 45 44 45 45 44 43 42 42 41 40 39 38 37 38 39 39 40 39 37 34 33 35 36 36 35 32 28 27 28 28 32 36 34 30 29 27 25 24
51 49 47 45 44 44 44 43 42 41 40 40 40 40 39 38 37 37 37 38 38 36 34 33 33 33 32 31 33 34 34 33 30 29 34 37 34 31 29 26 25 23
50 49 47 45 44 43 42 41 39 39 39 39 39 40 40 40 39 37 36 36 36 34 33 33 32 31 30 30 33 36 36 31 27 31 37 36 32 31 29 27 26 24
49 48 46 45 43 41 39 36 35 36 36 36 37 38 39 40 39 37 36 35 33 33 32 32 31 31 31 31 31 33 32 28 25 31 38 37 35 33 30 28 27 25
47 46 45 43 41 37 34 32 33 34 34 34 34 35 37 37 37 36 35 33 32 32 32 31 30 30 31 30 28 27 27 25 25 31 35 37 36 34 31 28 25 23
Wind_Direction
220 219 218 217 217 218 217 216 213 212 215 219 223 225 226 228 227 226 229 234 244 241 222 204 200 201 197 202 214 218 219 219 218 220 218 210 206 207 206 198 195 201
220 218 217 217 218 219 218 218 219 218 219 221 223 224 226 228 225 225 230 237 244 241 225 209 206 205 197 199 212 222 226 226 225 227 221 211 208 212 214 208 202 204
220 217 217 218 218 218 218 219 221 222 224 224 222 222 223 225 224 226 232 240 244 237 225 213 210 212 206 202 209 221 229 230 229 229 221 211 210 214 217 217 214 210
219 218 218 219 220 219 219 219 220 222 224 225 222 221 221 223 224 227 232 238 238 232 228 220 213 213 214 210 208 215 225 229 227 224 218 211 210 213 217 222 222 218
219 219 219 220 220 220 219 220 221 221 222 224 222 221 222 222 223 227 230 233 234 231 229 225 218 213 216 217 213 213 219 220 218 218 218 211 208 211 216 221 223 222
219 218 218 220 220 219 220 220 221 222 222 223 223 223 223 222 224 228 229 232 236 235 230 228 225 217 214 216 217 215 217 216 211 213 216 214 211 213 216 220 223 224
218 217 218 218 219 219 220 220 221 222 222 223 224 224 225 225 226 230 233 235 239 239 236 234 231 224 216 215 216 216 215 214 212 212 215 215 215 217 217 219 223 223
218 217 217 217 218 218 219 220 220 222 223 224 225 225 226 228 229 231 234 237 240 241 241 239 237 230 220 216 217 217 215 215 215 215 216 215 217 220 219 218 220 220
218 218 217 218 218 218 219 219 220 221 223 225 226 226 227 229 231 232 235 238 241 242 241 241 238 232 225 221 219 217 216 218 220 221 221 216 217 222 221 217 219 219
218 219 219 219 219 219 219 219 219 221 223 225 227 227 228 229 231 233 235 237 240 241 240 240 238 234 229 224 221 219 220 222 224 227 227 221 216 218 218 217 218 218
218 219 219 220 220 220 220 220 219 221 223 225 227 228 229 230 231 233 234 236 239 240 240 239 238 237 231 224 221 220 223 227 227 229 231 227 220 216 216 217 218 219
218 219 220 220 221 222 222 221 221 222 223 225 227 228 230 231 232 234 236 237 238 240 240 239 239 238 231 225 221 218 227 238 231 229 232 230 226 221 218 220 221 222
218 219 220 220 221 223 223 222 222 223 224 226 227 229 230 232 233 235 237 239 239 240 241 239 238 236 228 223 220 220 235 244 233 228 230 230 230 228 224 224 224 223
220 220 220 221 222 223 223 223 223 223 224 226 227 228 231 233 235 236 238 239 240 241 241 239 237 232 225 218 217 220 232 241 238 235 231 228 228 230 230 230 227 225
220 220 220 221 222 222 223 224 224 223 224 226 227 228 231 233 236 237 237 238 239 240 240 238 235 231 226 221 218 222 230 241 248 244 234 228 227 228 230 230 228 230
220 220 220 221 221 222 224 225 224 223 223 224 227 229 230 232 234 236 237 238 238 238 238 237 235 231 230 228 225 225 231 241 250 243 232 227 226 226 228 230 230 232
220 220 220 221 222 223 224 224 224 223 222 223 226 228 229 231 232 235 237 238 238 239 239 239 236 233 232 233 229 225 231 241 246 238 229 225 225 225 228 230 228 229
221 220 220 221 221 222 223 223 222 221 220 222 225 227 229 229 231 234 237 238 239 239 238 239 239 235 235 236 231 226 231 239 241 234 228 226 226 226 226 225 224 225
221 220 220 220 221 221 221 221 220 219 219 221 223 226 228 229 231 234 235 238 239 239 237 238 238 237 236 236 233 229 229 232 234 232 229 228 228 228 224 221 220 224
221 221 220 220 220 220 219 219 219 219 219 220 222 224 227 229 231 232 235 238 239 239 239 238 237 238 236 234 234 231 227 229 235 234 231 231 231 229 225 222 223 227
219 219 219 219 219 218 218 218 218 218 217 218 220 223 226 229 231 232 235 237 238 239 240 239 240 240 236 235 236 230 222 228 237 237 236 235 233 230 225 223 225 230
216 216 216 216 216 216 216 216 217 217 216 217 219 221 224 228 232 233 234 236 238 239 239 240 243 241 237 236 233 224 221 230 236 236 237 236 233 229 224 223 228 231
213 213 213 214 214 214 214 214 215 216 216 216 218 220 222 226 230 233 235 237 237 237 238 240 242 241 239 236 231 228 233 239 238 233 232 231 229 226 224 227 232 232
209 211 212 212 212 212 212 212 214 215 216 217 219 222 224 225 228 231 234 236 236 238 240 241 242 244 243 238 234 236 240 243 236 226 223 224 225 225 227 230 230 228
206 208 209 209 209 209 210 213 216 217 217 218 221 223 225 225 226 228 229 232 235 237 239 240 242 245 243 239 237 239 241 242 231 217 216 221 224 226 228 228 229 233
202 204 206 207 208 209 212 216 218 218 218 218 218 220 223 224 225 225 226 228 231 233 235 239 242 242 238 236 238 241 243 239 223 211 214 219 223 225 225 224 234 246